Location: Unspecified
(0.0000°N, 0.0000°E)
Time: 04:44:07
(UTC+00:00)

Vanguard 2 Rocket - Pass Details

Date: 09 December 2017
Orbit: 553 x 3328 km, 32.9° (Epoch: 26 April)

Event Time Altitude Azimuth Distance (km) Brightness Sun altitude
Rises 17:44:51 0° 249° (WSW) 4,006 14.1 1.8°
Reaches altitude 10° 17:47:10 10° 254° (WSW) 3,312 12.1 1.2°
Maximum altitude 17:55:42 56° 330° (NNW) 2,175 8.9 -0.7°
Drops below altitude 10° 18:10:48 10° 44° (NE) 5,599 10.3 -4.2°
Enters shadow 18:15:06 - 48° (NE) 6,686 10.7 -5.2°
Sets 18:16:07 0° 48° (NE) 6,932 - -5.4°
